Time,TemperatureF,DewpointF,PressureIn,WindDirection,WindDirectionDegrees,WindSpeedMPH,WindSpeedGustMPH,Humidity,HourlyPrecipIn,Conditions,Clouds,dailyrainin,SoftwareType,DateUTC
2013-02-27 00:01:00,37.0,35.0,-100.00,East,90,27.0,34.0,94,-99.99,,,-99.99,,2013-02-27 05:01:00,
2013-02-27 00:11:00,37.0,35.0,-100.00,East,90,27.0,34.0,94,-99.99,,,-99.99,,2013-02-27 05:11:00,
2013-02-27 00:21:00,37.0,35.0,-100.00,East,90,27.0,34.0,93,-99.99,,,-99.99,,2013-02-27 05:21:00,
2013-02-27 00:32:00,37.0,35.0,-100.00,East,90,27.0,34.0,93,-99.99,,,-99.99,,2013-02-27 05:32:00,
2013-02-27 00:41:00,37.0,36.0,-100.00,East,90,27.0,36.0,95,-99.99,,,-99.99,,2013-02-27 05:41:00,
2013-02-27 00:51:00,37.0,36.0,-100.00,East,90,27.0,36.0,95,-99.99,,,-99.99,,2013-02-27 05:51:00,
2013-02-27 01:00:00,38.0,36.0,-100.00,East,90,29.0,34.0,93,-99.99,,,-99.99,,2013-02-27 06:00:00,
2013-02-27 01:02:00,37.0,36.0,-100.00,East,90,29.0,34.0,93,-99.99,,,-99.99,,2013-02-27 06:02:00,
2013-02-27 01:11:00,37.0,36.0,-100.00,East,90,29.0,34.0,93,-99.99,,,-99.99,,2013-02-27 06:11:00,
2013-02-27 01:21:00,38.0,36.0,-100.00,East,90,29.0,36.0,93,-99.99,,,-99.99,,2013-02-27 06:21:00,
2013-02-27 01:32:00,38.0,36.0,-100.00,East,90,29.0,36.0,93,-99.99,,,-99.99,,2013-02-27 06:32:00,
2013-02-27 01:41:00,38.0,36.0,-100.00,East,90,29.0,34.0,93,-99.99,,,-99.99,,2013-02-27 06:41:00,
2013-02-27 01:51:00,38.0,36.0,-100.00,East,90,29.0,34.0,93,-99.99,,,-99.99,,2013-02-27 06:51:00,
2013-02-27 03:11:00,38.0,37.0,-100.00,East,90,29.0,36.0,96,-99.99,,,-99.99,,2013-02-27 08:11:00,
2013-02-27 03:21:00,38.0,37.0,-100.00,East,90,29.0,36.0,96,-99.99,,,-99.99,,2013-02-27 08:21:00,
2013-02-27 03:31:00,38.0,37.0,-100.00,East,90,29.0,36.0,96,-99.99,,,-99.99,,2013-02-27 08:31:00,
2013-02-27 03:41:00,38.0,37.0,-100.00,East,80,29.0,36.0,95,-99.99,,,-99.99,,2013-02-27 08:41:00,
2013-02-27 03:52:00,38.0,37.0,-100.00,East,80,29.0,36.0,95,-99.99,,,-99.99,,2013-02-27 08:52:00,
2013-02-27 04:01:00,38.0,37.0,-100.00,ENE,70,27.0,36.0,96,-99.99,,,-99.99,,2013-02-27 09:01:00,
2013-02-27 04:11:00,38.0,37.0,-100.00,ENE,70,27.0,36.0,96,-99.99,,,-99.99,,2013-02-27 09:11:00,
2013-02-27 04:21:00,38.0,38.0,-100.00,East,80,27.0,34.0,96,-99.99,,,-99.99,,2013-02-27 09:21:00,
2013-02-27 04:31:00,38.0,38.0,-100.00,East,80,27.0,34.0,96,-99.99,,,-99.99,,2013-02-27 09:31:00,
2013-02-27 04:41:00,39.0,38.0,-100.00,East,80,27.0,31.0,95,-99.99,,,-99.99,,2013-02-27 09:41:00,
2013-02-27 04:51:00,39.0,38.0,-100.00,East,80,27.0,31.0,95,-99.99,,,-99.99,,2013-02-27 09:51:00,
2013-02-27 05:00:00,39.0,39.0,-100.00,East,90,29.0,36.0,97,-99.99,,,-99.99,,2013-02-27 10:00:00,
2013-02-27 05:01:00,39.0,38.0,-100.00,East,90,27.0,36.0,97,-99.99,,,-99.99,,2013-02-27 10:01:00,
2013-02-27 05:12:00,39.0,38.0,-100.00,East,90,27.0,36.0,97,-99.99,,,-99.99,,2013-02-27 10:12:00,
2013-02-27 05:21:00,39.0,38.0,-100.00,East,90,27.0,36.0,97,-99.99,,,-99.99,,2013-02-27 10:21:00,
2013-02-27 05:31:00,39.0,39.0,-100.00,East,90,29.0,36.0,97,-99.99,,,-99.99,,2013-02-27 10:31:00,
2013-02-27 05:41:00,39.0,39.0,-100.00,East,90,29.0,36.0,97,-99.99,,,-99.99,,2013-02-27 10:41:00,
2013-02-27 05:52:00,39.0,39.0,-100.00,East,90,29.0,36.0,97,-99.99,,,-99.99,,2013-02-27 10:52:00,
2013-02-27 06:21:00,40.0,39.0,-100.00,East,90,31.0,38.0,97,-99.99,,,-99.99,,2013-02-27 11:21:00,
2013-02-27 06:31:00,40.0,39.0,-100.00,East,90,29.0,38.0,97,-99.99,,,-99.99,,2013-02-27 11:31:00,
2013-02-27 06:41:00,40.0,39.0,-100.00,East,90,29.0,38.0,97,-99.99,,,-99.99,,2013-02-27 11:41:00,
2013-02-27 06:51:00,40.0,39.0,-100.00,East,90,29.0,38.0,97,-99.99,,,-99.99,,2013-02-27 11:51:00,
2013-02-27 07:01:00,40.0,39.0,-100.00,East,90,29.0,36.0,97,-99.99,,,-99.99,,2013-02-27 12:01:00,
2013-02-27 07:12:00,40.0,39.0,-100.00,East,90,29.0,36.0,97,-99.99,,,-99.99,,2013-02-27 12:12:00,
2013-02-27 07:32:00,40.0,40.0,-100.00,East,90,29.0,36.0,98,-99.99,,,-99.99,,2013-02-27 12:32:00,
2013-02-27 07:41:00,40.0,40.0,-100.00,East,90,29.0,36.0,97,-99.99,,,-99.99,,2013-02-27 12:41:00,
2013-02-27 07:52:00,40.0,40.0,-100.00,East,90,29.0,36.0,97,-99.99,,,-99.99,,2013-02-27 12:52:00,
2013-02-27 08:01:00,40.0,40.0,-100.00,East,90,29.0,36.0,97,-99.99,,,-99.99,,2013-02-27 13:01:00,
2013-02-27 08:11:00,40.0,40.0,-100.00,East,90,29.0,36.0,97,-99.99,,,-99.99,,2013-02-27 13:11:00,
2013-02-27 08:21:00,40.0,40.0,-100.00,East,90,29.0,36.0,97,-99.99,,,-99.99,,2013-02-27 13:21:00,
2013-02-27 08:31:00,40.0,40.0,-100.00,East,90,29.0,36.0,97,-99.99,,,-99.99,,2013-02-27 13:31:00,
2013-02-27 08:41:00,40.0,40.0,-100.00,East,90,29.0,36.0,97,-99.99,,,-99.99,,2013-02-27 13:41:00,
2013-02-27 08:52:00,40.0,40.0,-100.00,East,90,31.0,40.0,98,-99.99,,,-99.99,,2013-02-27 13:52:00,
2013-02-27 09:00:00,41.0,40.0,-100.00,East,90,31.0,40.0,98,-99.99,,,-99.99,,2013-02-27 14:00:00,
2013-02-27 09:01:00,41.0,40.0,-100.00,East,90,34.0,43.0,98,-99.99,,,-99.99,,2013-02-27 14:01:00,
2013-02-27 09:11:00,41.0,40.0,-100.00,East,90,34.0,43.0,98,-99.99,,,-99.99,,2013-02-27 14:11:00,
2013-02-27 09:21:00,41.0,40.0,-100.00,East,90,34.0,45.0,98,-99.99,,,-99.99,,2013-02-27 14:21:00,
2013-02-27 09:31:00,41.0,40.0,-100.00,East,90,34.0,45.0,98,-99.99,,,-99.99,,2013-02-27 14:31:00,
2013-02-27 09:41:00,41.0,40.0,-100.00,East,90,31.0,40.0,98,-99.99,,,-99.99,,2013-02-27 14:41:00,
2013-02-27 09:52:00,41.0,40.0,-100.00,East,90,31.0,40.0,98,-99.99,,,-99.99,,2013-02-27 14:52:00,
2013-02-27 10:11:00,41.0,40.0,-100.00,East,100,31.0,40.0,98,-99.99,,,-99.99,,2013-02-27 15:11:00,
2013-02-27 10:21:00,41.0,40.0,-100.00,East,100,31.0,40.0,98,-99.99,,,-99.99,,2013-02-27 15:21:00,
2013-02-27 10:31:00,41.0,40.0,-100.00,East,100,31.0,40.0,98,-99.99,,,-99.99,,2013-02-27 15:31:00,
2013-02-27 10:41:00,41.0,40.0,-100.00,East,100,31.0,43.0,98,-99.99,,,-99.99,,2013-02-27 15:41:00,
2013-02-27 10:51:00,41.0,40.0,-100.00,East,100,31.0,43.0,98,-99.99,,,-99.99,,2013-02-27 15:51:00,
2013-02-27 11:01:00,41.0,41.0,-100.00,ESE,110,31.0,40.0,98,-99.99,,,-99.99,,2013-02-27 16:01:00,
2013-02-27 11:11:00,41.0,41.0,-100.00,ESE,110,31.0,40.0,98,-99.99,,,-99.99,,2013-02-27 16:11:00,
2013-02-27 11:21:00,41.0,41.0,-100.00,ESE,110,34.0,45.0,98,-99.99,,,-99.99,,2013-02-27 16:21:00,
2013-02-27 11:31:00,41.0,41.0,-100.00,ESE,110,34.0,45.0,98,-99.99,,,-99.99,,2013-02-27 16:31:00,
2013-02-27 11:41:00,41.0,41.0,-100.00,East,100,34.0,45.0,97,-99.99,,,-99.99,,2013-02-27 16:41:00,
2013-02-27 11:51:00,41.0,41.0,-100.00,East,100,34.0,45.0,97,-99.99,,,-99.99,,2013-02-27 16:51:00,
2013-02-27 12:01:00,41.0,40.0,-100.00,East,100,34.0,43.0,98,-99.99,,,-99.99,,2013-02-27 17:01:00,
2013-02-27 12:11:00,41.0,40.0,-100.00,East,100,34.0,43.0,98,-99.99,,,-99.99,,2013-02-27 17:11:00,
2013-02-27 12:21:00,41.0,40.0,-100.00,East,100,34.0,43.0,98,-99.99,,,-99.99,,2013-02-27 17:21:00,
2013-02-27 12:32:00,41.0,40.0,-100.00,East,100,27.0,36.0,97,-99.99,,,-99.99,,2013-02-27 17:32:00,
2013-02-27 12:41:00,41.0,40.0,-100.00,East,100,27.0,36.0,97,-99.99,,,-99.99,,2013-02-27 17:41:00,
2013-02-27 12:52:00,41.0,40.0,-100.00,East,100,27.0,36.0,97,-99.99,,,-99.99,,2013-02-27 17:52:00,
2013-02-27 13:01:00,41.0,40.0,-100.00,ESE,110,25.0,34.0,98,-99.99,,,-99.99,,2013-02-27 18:01:00,
2013-02-27 13:11:00,41.0,40.0,-100.00,ESE,110,25.0,34.0,98,-99.99,,,-99.99,,2013-02-27 18:11:00,
2013-02-27 13:21:00,41.0,40.0,-100.00,East,100,22.0,29.0,97,-99.99,,,-99.99,,2013-02-27 18:21:00,
2013-02-27 13:30:00,40.0,40.0,-100.00,East,100,22.0,29.0,97,-99.99,,,-99.99,,2013-02-27 18:30:00,
2013-02-27 13:31:00,41.0,40.0,-100.00,East,100,22.0,29.0,97,-99.99,,,-99.99,,2013-02-27 18:31:00,
2013-02-27 13:41:00,41.0,40.0,-100.00,East,100,25.0,29.0,97,-99.99,,,-99.99,,2013-02-27 18:41:00,
2013-02-27 13:51:00,41.0,40.0,-100.00,East,100,25.0,29.0,97,-99.99,,,-99.99,,2013-02-27 18:51:00,
2013-02-27 14:01:00,40.0,40.0,-100.00,East,100,22.0,29.0,97,-99.99,,,-99.99,,2013-02-27 19:01:00,
2013-02-27 14:11:00,40.0,40.0,-100.00,East,100,22.0,29.0,97,-99.99,,,-99.99,,2013-02-27 19:11:00,
2013-02-27 14:21:00,40.0,40.0,-100.00,East,100,22.0,29.0,97,-99.99,,,-99.99,,2013-02-27 19:21:00,
2013-02-27 14:41:00,40.0,40.0,-100.00,East,90,22.0,29.0,97,-99.99,,,-99.99,,2013-02-27 19:41:00,
2013-02-27 14:51:00,40.0,40.0,-100.00,East,90,22.0,29.0,97,-99.99,,,-99.99,,2013-02-27 19:51:00,
2013-02-27 15:01:00,40.0,40.0,-100.00,East,80,25.0,29.0,97,-99.99,,,-99.99,,2013-02-27 20:01:00,
2013-02-27 15:11:00,40.0,40.0,-100.00,East,80,25.0,29.0,97,-99.99,,,-99.99,,2013-02-27 20:11:00,
2013-02-27 15:21:00,40.0,40.0,-100.00,East,80,25.0,29.0,97,-99.99,,,-99.99,,2013-02-27 20:21:00,
2013-02-27 15:31:00,40.0,39.0,-100.00,East,90,20.0,25.0,97,-99.99,,,-99.99,,2013-02-27 20:31:00,
2013-02-27 15:41:00,40.0,39.0,-100.00,East,90,20.0,25.0,97,-99.99,,,-99.99,,2013-02-27 20:41:00,
2013-02-27 15:52:00,40.0,39.0,-100.00,East,90,20.0,25.0,97,-99.99,,,-99.99,,2013-02-27 20:52:00,
2013-02-27 16:01:00,40.0,40.0,-100.00,East,80,16.0,20.0,97,-99.99,,,-99.99,,2013-02-27 21:01:00,
2013-02-27 16:11:00,40.0,40.0,-100.00,East,80,16.0,20.0,97,-99.99,,,-99.99,,2013-02-27 21:11:00,
2013-02-27 16:21:00,40.0,40.0,-100.00,East,80,18.0,22.0,98,-99.99,,,-99.99,,2013-02-27 21:21:00,
2013-02-27 16:31:00,40.0,40.0,-100.00,East,80,18.0,22.0,98,-99.99,,,-99.99,,2013-02-27 21:31:00,
2013-02-27 16:41:00,40.0,39.0,-100.00,East,80,16.0,22.0,98,-99.99,,,-99.99,,2013-02-27 21:41:00,
2013-02-27 16:51:00,40.0,39.0,-100.00,East,80,16.0,22.0,98,-99.99,,,-99.99,,2013-02-27 21:51:00,
2013-02-27 17:01:00,40.0,39.0,-100.00,East,80,16.0,22.0,98,-99.99,,,-99.99,,2013-02-27 22:01:00,
2013-02-27 17:11:00,40.0,39.0,-100.00,East,80,16.0,22.0,98,-99.99,,,-99.99,,2013-02-27 22:11:00,
2013-02-27 18:00:00,38.0,38.0,-100.00,East,80,9.0,11.0,99,-99.99,,,-99.99,,2013-02-27 23:00:00,
2013-02-27 18:21:00,38.0,38.0,-100.00,East,80,9.0,11.0,98,-99.99,,,-99.99,,2013-02-27 23:21:00,
2013-02-27 18:31:00,38.0,38.0,-100.00,East,80,9.0,11.0,98,-99.99,,,-99.99,,2013-02-27 23:31:00,
2013-02-27 18:41:00,38.0,38.0,-100.00,East,80,9.0,11.0,99,-99.99,,,-99.99,,2013-02-27 23:41:00,
2013-02-27 18:52:00,38.0,38.0,-100.00,East,80,9.0,11.0,99,-99.99,,,-99.99,,2013-02-27 23:52:00,
2013-02-27 19:00:00,41.0,41.0,-100.00,WSW,240,4.0,9.0,99,-99.99,,,-99.99,,2013-02-28 00:00:00,
2013-02-27 19:21:00,40.0,40.0,-100.00,SE,140,2.0,13.0,99,-99.99,,,-99.99,,2013-02-28 00:21:00,
2013-02-27 19:31:00,40.0,40.0,-100.00,SE,140,2.0,13.0,99,-99.99,,,-99.99,,2013-02-28 00:31:00,
2013-02-27 19:42:00,41.0,41.0,-100.00,WSW,240,4.0,9.0,99,-99.99,,,-99.99,,2013-02-28 00:42:00,
2013-02-27 19:51:00,41.0,41.0,-100.00,WSW,240,4.0,9.0,99,-99.99,,,-99.99,,2013-02-28 00:51:00,
2013-02-27 20:00:00,38.0,38.0,-100.00,West,260,13.0,18.0,100,-99.99,,,-99.99,,2013-02-28 01:00:00,
2013-02-27 20:21:00,38.0,38.0,-100.00,WSW,250,13.0,16.0,99,-99.99,,,-99.99,,2013-02-28 01:21:00,
2013-02-27 20:31:00,38.0,38.0,-100.00,WSW,250,13.0,16.0,99,-99.99,,,-99.99,,2013-02-28 01:31:00,
2013-02-27 20:41:00,38.0,38.0,-100.00,West,260,13.0,18.0,100,-99.99,,,-99.99,,2013-02-28 01:41:00,
2013-02-27 20:51:00,38.0,38.0,-100.00,West,260,13.0,18.0,100,-99.99,,,-99.99,,2013-02-28 01:51:00,
2013-02-27 21:00:00,37.0,37.0,-100.00,West,270,11.0,16.0,99,-99.99,,,-99.99,,2013-02-28 02:00:00,
2013-02-27 21:21:00,38.0,38.0,-100.00,West,280,11.0,16.0,100,-99.99,,,-99.99,,2013-02-28 02:21:00,
2013-02-27 21:31:00,38.0,38.0,-100.00,West,280,11.0,16.0,100,-99.99,,,-99.99,,2013-02-28 02:31:00,
2013-02-27 21:41:00,38.0,38.0,-100.00,West,280,11.0,16.0,100,-99.99,,,-99.99,,2013-02-28 02:41:00,
2013-02-27 22:00:00,38.0,38.0,-100.00,West,260,16.0,18.0,100,-99.99,,,-99.99,,2013-02-28 03:00:00,
2013-02-27 22:31:00,38.0,38.0,-100.00,West,260,13.0,16.0,100,-99.99,,,-99.99,,2013-02-28 03:31:00,
2013-02-27 22:41:00,38.0,38.0,-100.00,West,260,16.0,18.0,100,-99.99,,,-99.99,,2013-02-28 03:41:00,
2013-02-27 22:51:00,38.0,38.0,-100.00,West,260,16.0,18.0,100,-99.99,,,-99.99,,2013-02-28 03:51:00,
2013-02-27 23:21:00,39.0,39.0,-100.00,West,270,16.0,18.0,99,-99.99,,,-99.99,,2013-02-28 04:21:00,
2013-02-27 23:31:00,39.0,39.0,-100.00,West,270,16.0,18.0,99,-99.99,,,-99.99,,2013-02-28 04:31:00,
2013-02-27 23:41:00,39.0,38.0,-100.00,West,280,13.0,16.0,96,-99.99,,,-99.99,,2013-02-28 04:41:00,
2013-02-27 23:51:00,39.0,38.0,-100.00,West,280,13.0,16.0,96,-99.99,,,-99.99,,2013-02-28 04:51:00,